User: anonymous   Login
Location: Caltech
(34.1382°N, 118.1253°W)
Time: 10:18:48
(UTC-07:00)
Language:

PANSAT - Orbit

View from above orbital plane
View from above orbital plane
View from above satellite
View from above satellite

Ground track
Ground track

The orbit data is extracted from the following two-line orbital elements,

1 25520U 98064B   18170.91918570 +.00000539 +00000-0 +10933-4 0  9995
2 25520 028.4585 358.7905 0005290 121.0235 239.0880 15.28854725090304
Epoch (UTC): 19 June 2018 22:03:37
Eccentricity: 0.0005290
inclination: 28.4585°
perigee height: 475 km
apogee height: 483 km
right ascension of ascending node: 358.7905°
argument of perigee: 121.0235°
revolutions per day: 15.28854725
mean anomaly at epoch: 239.0880°
orbit number at epoch: 9030

The dashed part of the orbit path shows where the satellite is in the earth's shadow,  

DLR